Location: Chillicothe
(39.7950°N, 93.5520°W)
Time: 23:07:43
(UTC-05:00)

S-56A Canister/Altair - Visible Passes

Search period start: 23 October 2019 00:00
Search period end: 02 November 2019 00:00
Orbit: 633 x 2499 km, 38.9° (Epoch: 22 October)

Date Brightness Start Highest point End Pass type
(mag) Time Alt. Az. Time Alt. Az. Time Alt. Az.
23 Oct 10.0 03:32:31 26° E 03:32:31 26° E 03:36:08 10° E visible
23 Oct 8.5 05:29:57 46° W 05:32:32 84° S 05:43:01 10° E visible
24 Oct 10.7 03:01:41 14° E 03:01:41 14° E 03:02:46 10° E visible
24 Oct 8.2 04:59:06 78° WSW 04:59:40 85° S 05:09:21 10° E visible
24 Oct 9.2 06:56:43 10° W 07:04:26 63° SSW 07:16:11 10° ESE visible
25 Oct 8.6 04:28:16 62° E 04:28:16 62° E 04:35:46 10° E visible
25 Oct 9.0 06:25:42 18° W 06:31:27 66° SSW 06:42:32 10° ESE visible
26 Oct 9.5 03:57:27 35° E 03:57:27 35° E 04:02:17 10° E visible
26 Oct 8.7 05:54:53 32° W 05:58:32 68° SSW 06:08:55 10° ESE visible
27 Oct 10.3 03:26:39 19° E 03:26:39 19° E 03:28:53 10° E visible
27 Oct 8.3 05:24:05 55° WSW 05:25:40 71° SSW 05:35:21 10° ESE visible
28 Oct 8.3 04:53:19 71° SSE 04:53:19 71° SSE 05:01:49 10° ESE visible
28 Oct 9.5 06:50:45 11° W 06:57:18 40° SSW 07:07:15 10° SE visible
29 Oct 9.1 04:22:33 44° ESE 04:22:33 44° ESE 04:28:22 10° ESE visible
29 Oct 9.2 06:20:00 21° W 06:24:23 42° SSW 06:33:53 10° SE visible
30 Oct 10.0 03:51:50 24° ESE 03:51:50 24° ESE 03:54:59 10° ESE visible
30 Oct 8.8 05:49:17 35° WSW 05:51:33 45° SSW 06:00:31 10° SE visible
31 Oct 10.7 03:21:08 12° E 03:21:08 12° E 03:21:42 10° E visible
31 Oct 8.6 05:18:35 47° SSW 05:18:46 47° SSW 05:27:12 10° SE visible
01 Nov 9.0 04:47:55 40° SSE 04:47:55 40° SSE 04:53:54 10° SE visible
01 Nov 9.9 06:45:22 11° WSW 06:50:13 21° SSW 06:56:50 10° SSE visible
